Wetterdaten: Freitag, 04.10.2013
Datum Zeit Temperatur Luftfeuchte Luftdruck Regen Wind Richtung Richtung Taupunkt Windchill Windben
04.10.2013 00:00 5,3 C 92 % 1021,6 hPa 0,0 l/m 0,5 km/h (0 Bft) SO 135 4,1 C 5,6 C 0,0 km/h (0 Bft)
04.10.2013 00:05 5,5 C 93 % 1021,7 hPa 0,0 l/m 0,5 km/h (0 Bft) SO 135 4,5 C 5,6 C 0,0 km/h (0 Bft)
04.10.2013 00:10 5,9 C 93 % 1021,7 hPa 0,0 l/m 0,0 km/h (0 Bft) O 90 4,9 C 6,0 C 0,0 km/h (0 Bft)
04.10.2013 00:15 6,0 C 92 % 1021,7 hPa 0,0 l/m 0,0 km/h (0 Bft) SO 135 4,8 C 6,2 C 0,0 km/h (0 Bft)
04.10.2013 00:20 6,1 C 92 % 1021,7 hPa 0,0 l/m 0,3 km/h (0 Bft) S 180 4,9 C 6,3 C 0,0 km/h (0 Bft)
04.10.2013 00:25 6,1 C 92 % 1021,5 hPa 0,0 l/m 0,5 km/h (0 Bft) NO 45 4,9 C 6,4 C 3,1 km/h (1 Bft)
04.10.2013 00:30 6,2 C 92 % 1021,5 hPa 0,0 l/m 0,2 km/h (0 Bft) N-NW 337 5,0 C 6,4 C 0,0 km/h (0 Bft)
04.10.2013 00:35 6,2 C 92 % 1021,5 hPa 0,0 l/m 0,2 km/h (0 Bft) N-NO 22 5,0 C 6,4 C 1,8 km/h (1 Bft)
04.10.2013 00:40 6,3 C 92 % 1021,5 hPa 0,0 l/m 0,2 km/h (0 Bft) N 360 5,1 C 6,5 C 0,0 km/h (0 Bft)
04.10.2013 00:45 6,5 C 92 % 1021,3 hPa 0,0 l/m 0,2 km/h (0 Bft) N 360 5,3 C 6,7 C 0,0 km/h (0 Bft)
04.10.2013 00:50 6,6 C 93 % 1021,3 hPa 0,0 l/m 0,0 km/h (0 Bft) N 360 5,6 C 6,7 C 0,0 km/h (0 Bft)
04.10.2013 00:55 6,8 C 93 % 1021,3 hPa 0,0 l/m 0,0 km/h (0 Bft) N 360 5,7 C 6,9 C 0,0 km/h (0 Bft)
04.10.2013 01:00 6,9 C 93 % 1021,3 hPa 0,0 l/m 0,0 km/h (0 Bft) N 360 5,8 C 6,9 C 0,0 km/h (0 Bft)
04.10.2013 01:05 7,0 C 92 % 1021,6 hPa 0,0 l/m 0,0 km/h (0 Bft) N-NO 22 5,8 C 7,1 C 0,0 km/h (0 Bft)
04.10.2013 01:10 7,1 C 92 % 1021,6 hPa 0,0 l/m 0,0 km/h (0 Bft) SW 225 5,9 C 7,2 C 0,0 km/h (0 Bft)
04.10.2013 01:15 7,1 C 92 % 1021,6 hPa 0,0 l/m 0,0 km/h (0 Bft) W-SW 247 5,9 C 7,2 C 0,0 km/h (0 Bft)
04.10.2013 01:20 7,1 C 92 % 1021,6 hPa 0,0 l/m 0,0 km/h (0 Bft) W-SW 247 5,9 C 7,2 C 0,0 km/h (0 Bft)
04.10.2013 01:25 7,2 C 92 % 1021,3 hPa 0,0 l/m 0,0 km/h (0 Bft) W-SW 247 6,0 C 7,3 C 0,0 km/h (0 Bft)
04.10.2013 01:30 7,2 C 92 % 1021,3 hPa 0,0 l/m 0,0 km/h (0 Bft) W-NW 292 6,0 C 7,3 C 0,0 km/h (0 Bft)
04.10.2013 01:35 7,2 C 92 % 1021,3 hPa 0,0 l/m 0,2 km/h (0 Bft) N 360 6,0 C 7,3 C 0,0 km/h (0 Bft)
04.10.2013 01:40 7,2 C 92 % 1021,3 hPa 0,0 l/m 0,2 km/h (0 Bft) NO 45 6,0 C 7,3 C 0,0 km/h (0 Bft)
04.10.2013 01:45 7,2 C 92 % 1021,4 hPa 0,0 l/m 0,0 km/h (0 Bft) NO 45 6,0 C 7,3 C 0,0 km/h (0 Bft)
04.10.2013 01:50 7,3 C 92 % 1021,4 hPa 0,0 l/m 0,0 km/h (0 Bft) NO 45 6,1 C 7,3 C 0,0 km/h (0 Bft)
04.10.2013 01:55 7,3 C 92 % 1021,4 hPa 0,0 l/m 0,0 km/h (0 Bft) NO 45 6,1 C 7,3 C 0,0 km/h (0 Bft)
04.10.2013 02:00 7,3 C 92 % 1021,4 hPa 0,0 l/m 0,0 km/h (0 Bft) NO 45 6,1 C 7,3 C 0,0 km/h (0 Bft)
04.10.2013 02:05 7,2 C 92 % 1021,6 hPa 0,0 l/m 0,0 km/h (0 Bft) NO 45 6,0 C 7,3 C 0,0 km/h (0 Bft)
04.10.2013 02:10 7,2 C 92 % 1021,6 hPa 0,0 l/m 0,0 km/h (0 Bft) NO 45 6,0 C 7,2 C 0,0 km/h (0 Bft)
04.10.2013 02:15 7,1 C 92 % 1021,6 hPa 0,0 l/m 0,0 km/h (0 Bft) NO 45 5,9 C 7,1 C 0,0 km/h (0 Bft)
04.10.2013 02:20 7,1 C 92 % 1021,6 hPa 0,0 l/m 0,5 km/h (0 Bft) NO 45 5,9 C 7,0 C 2,7 km/h (1 Bft)
04.10.2013 02:25 6,9 C 92 % 1021,6 hPa 0,0 l/m 0,6 km/h (0 Bft) SO 135 5,7 C 6,9 C 0,0 km/h (0 Bft)
04.10.2013 02:30 6,9 C 92 % 1021,6 hPa 0,0 l/m 0,5 km/h (0 Bft) O 90 5,7 C 6,9 C 0,0 km/h (0 Bft)
04.10.2013 02:35 7,0 C 92 % 1021,6 hPa 0,0 l/m 0,2 km/h (0 Bft) NO 45 5,8 C 6,9 C 0,0 km/h (0 Bft)
04.10.2013 02:40 7,0 C 92 % 1021,6 hPa 0,0 l/m 0,2 km/h (0 Bft) O-NO 67 5,8 C 6,9 C 0,0 km/h (0 Bft)
04.10.2013 02:45 6,9 C 92 % 1021,4 hPa 0,0 l/m 0,0 km/h (0 Bft) O-SO 112 5,7 C 6,9 C 0,0 km/h (0 Bft)
04.10.2013 02:50 6,8 C 92 % 1021,4 hPa 0,0 l/m 0,0 km/h (0 Bft) O-SO 112 5,6 C 6,9 C 0,0 km/h (0 Bft)
04.10.2013 02:55 6,9 C 92 % 1021,4 hPa 0,0 l/m 0,3 km/h (0 Bft) NO 45 5,7 C 6,9 C 1,6 km/h (1 Bft)
04.10.2013 03:00 7,0 C 92 % 1021,4 hPa 0,0 l/m 0,3 km/h (0 Bft) O-NO 67 5,8 C 6,9 C 0,0 km/h (0 Bft)
04.10.2013 03:05 7,0 C 92 % 1021,4 hPa 0,0 l/m 0,0 km/h (0 Bft) NO 45 5,8 C 6,9 C 0,0 km/h (0 Bft)
04.10.2013 03:10 7,0 C 92 % 1021,4 hPa 0,0 l/m 0,3 km/h (0 Bft) S 180 5,8 C 7,0 C 2,6 km/h (1 Bft)
04.10.2013 03:15 6,9 C 92 % 1021,4 hPa 0,0 l/m 0,5 km/h (0 Bft) SO 135 5,7 C 7,0 C 0,0 km/h (0 Bft)
04.10.2013 03:20 6,9 C 92 % 1021,4 hPa 0,0 l/m 0,3 km/h (0 Bft) S-SO 157 5,7 C 7,0 C 0,0 km/h (0 Bft)
04.10.2013 03:25 6,9 C 92 % 1021,4 hPa 0,0 l/m 0,0 km/h (0 Bft) S-SO 157 5,7 C 7,0 C 0,0 km/h (0 Bft)
04.10.2013 03:30 6,9 C 92 % 1021,4 hPa 0,0 l/m 0,0 km/h (0 Bft) SO 135 5,7 C 7,0 C 0,0 km/h (0 Bft)
04.10.2013 03:35 7,0 C 92 % 1021,4 hPa 0,0 l/m 0,0 km/h (0 Bft) S-SO 157 5,8 C 7,0 C 0,0 km/h (0 Bft)
04.10.2013 03:40 7,0 C 92 % 1021,4 hPa 0,0 l/m 0,0 km/h (0 Bft) S 180 5,8 C 7,1 C 0,0 km/h (0 Bft)
04.10.2013 03:45 7,0 C 92 % 1021,4 hPa 0,0 l/m 0,0 km/h (0 Bft) S 180 5,8 C 7,1 C 0,0 km/h (0 Bft)
04.10.2013 03:50 6,9 C 92 % 1021,4 hPa 0,0 l/m 0,0 km/h (0 Bft) S 180 5,7 C 7,0 C 0,0 km/h (0 Bft)
04.10.2013 03:55 6,9 C 92 % 1021,4 hPa 0,0 l/m 0,0 km/h (0 Bft) SO 135 5,7 C 7,0 C 0,0 km/h (0 Bft)
04.10.2013 04:00 6,9 C 92 % 1021,4 hPa 0,0 l/m 0,0 km/h (0 Bft) SO 135 5,7 C 7,0 C 0,0 km/h (0 Bft)
04.10.2013 04:05 7,0 C 92 % 1021,3 hPa 0,0 l/m 0,0 km/h (0 Bft) SO 135 5,8 C 7,1 C 0,0 km/h (0 Bft)
04.10.2013 04:10 7,0 C 92 % 1021,3 hPa 0,0 l/m 0,0 km/h (0 Bft) SO 135 5,8 C 7,1 C 0,0 km/h (0 Bft)
04.10.2013 04:15 7,0 C 92 % 1021,3 hPa 0,0 l/m 0,0 km/h (0 Bft) SO 135 5,8 C 7,1 C 0,0 km/h (0 Bft)
04.10.2013 04:20 7,0 C 92 % 1021,3 hPa 0,0 l/m 0,2 km/h (0 Bft) NO 45 5,8 C 7,1 C 2,3 km/h (1 Bft)
04.10.2013 04:25 7,2 C 92 % 1021,5 hPa 0,0 l/m 0,6 km/h (0 Bft) NO 45 6,0 C 7,3 C 0,0 km/h (0 Bft)
04.10.2013 04:30 7,2 C 92 % 1021,5 hPa 0,0 l/m 0,6 km/h (0 Bft) O 90 6,0 C 7,3 C 0,0 km/h (0 Bft)
04.10.2013 04:35 7,2 C 92 % 1021,5 hPa 0,0 l/m 0,3 km/h (0 Bft) S 180 6,0 C 7,3 C 0,0 km/h (0 Bft)
04.10.2013 04:40 7,2 C 92 % 1021,5 hPa 0,0 l/m 0,3 km/h (0 Bft) S 180 6,0 C 7,4 C 0,0 km/h (0 Bft)
04.10.2013 04:45 7,3 C 92 % 1021,1 hPa 0,0 l/m 0,3 km/h (0 Bft) N-NO 22 6,1 C 7,4 C 0,0 km/h (0 Bft)
04.10.2013 04:50 7,4 C 93 % 1021,1 hPa 0,0 l/m 0,3 km/h (0 Bft) O-SO 112 6,3 C 7,5 C 0,0 km/h (0 Bft)
04.10.2013 04:55 7,5 C 93 % 1021,1 hPa 0,0 l/m 0,0 km/h (0 Bft) W 270 6,4 C 7,6 C 1,6 km/h (1 Bft)
04.10.2013 05:00 7,6 C 93 % 1021,1 hPa 0,0 l/m 0,0 km/h (0 Bft) W 270 6,5 C 7,6 C 0,0 km/h (0 Bft)
04.10.2013 05:05 7,7 C 93 % 1021,3 hPa 0,0 l/m 0,0 km/h (0 Bft) W 270 6,6 C 7,7 C 0,0 km/h (0 Bft)
04.10.2013 05:10 7,7 C 93 % 1021,3 hPa 0,0 l/m 0,0 km/h (0 Bft) W 270 6,6 C 7,8 C 0,0 km/h (0 Bft)
04.10.2013 05:15 7,8 C 92 % 1021,3 hPa 0,0 l/m 0,0 km/h (0 Bft) W 270 6,6 C 7,8 C 0,0 km/h (0 Bft)
04.10.2013 05:20 7,8 C 92 % 1021,3 hPa 0,0 l/m 0,0 km/h (0 Bft) W 270 6,6 C 7,8 C 0,0 km/h (0 Bft)
04.10.2013 05:25 7,8 C 92 % 1021,6 hPa 0,0 l/m 0,0 km/h (0 Bft) W 270 6,6 C 7,9 C 0,0 km/h (0 Bft)
04.10.2013 05:30 7,8 C 92 % 1021,6 hPa 0,0 l/m 0,0 km/h (0 Bft) S-SO 157 6,6 C 7,9 C 0,0 km/h (0 Bft)
04.10.2013 05:35 7,9 C 92 % 1021,6 hPa 0,0 l/m 0,2 km/h (0 Bft) SO 135 6,7 C 8,0 C 0,0 km/h (0 Bft)
04.10.2013 05:40 8,0 C 92 % 1021,6 hPa 0,0 l/m 0,2 km/h (0 Bft) S 180 6,8 C 8,1 C 0,0 km/h (0 Bft)
04.10.2013 05:45 8,0 C 92 % 1021,1 hPa 0,0 l/m 0,0 km/h (0 Bft) S 180 6,8 C 8,1 C 0,0 km/h (0 Bft)
04.10.2013 05:50 8,0 C 92 % 1021,1 hPa 0,0 l/m 0,0 km/h (0 Bft) SO 135 6,8 C 8,1 C 0,0 km/h (0 Bft)
04.10.2013 05:55 7,9 C 92 % 1021,1 hPa 0,0 l/m 0,0 km/h (0 Bft) SO 135 6,7 C 8,0 C 0,0 km/h (0 Bft)
04.10.2013 06:00 7,8 C 92 % 1021,1 hPa 0,0 l/m 0,0 km/h (0 Bft) SO 135 6,6 C 8,0 C 0,0 km/h (0 Bft)
04.10.2013 06:05 7,8 C 92 % 1021,0 hPa 0,0 l/m 0,0 km/h (0 Bft) S-SO 157 6,6 C 8,0 C 0,0 km/h (0 Bft)
04.10.2013 06:10 7,9 C 92 % 1021,0 hPa 0,0 l/m 0,0 km/h (0 Bft) S-SO 157 6,7 C 8,0 C 0,0 km/h (0 Bft)
04.10.2013 06:15 7,9 C 92 % 1021,0 hPa 0,0 l/m 0,0 km/h (0 Bft) S-SO 157 6,7 C 8,1 C 0,0 km/h (0 Bft)
04.10.2013 06:20 8,0 C 92 % 1021,0 hPa 0,0 l/m 0,0 km/h (0 Bft) S-SO 157 6,8 C 8,1 C 0,0 km/h (0 Bft)
04.10.2013 06:25 8,1 C 92 % 1020,9 hPa 0,0 l/m 0,0 km/h (0 Bft) SO 135 6,9 C 8,3 C 0,0 km/h (0 Bft)
04.10.2013 06:30 8,2 C 92 % 1020,9 hPa 0,0 l/m 0,0 km/h (0 Bft) S-SW 202 7,0 C 8,3 C 0,0 km/h (0 Bft)
04.10.2013 06:35 8,2 C 92 % 1020,9 hPa 0,0 l/m 0,0 km/h (0 Bft) S-SW 202 7,0 C 8,4 C 0,0 km/h (0 Bft)
04.10.2013 06:40 8,2 C 92 % 1020,9 hPa 0,0 l/m 0,0 km/h (0 Bft) S-SW 202 7,0 C 8,4 C 0,0 km/h (0 Bft)
04.10.2013 06:45 8,3 C 92 % 1020,9 hPa 0,0 l/m 0,0 km/h (0 Bft) S-SO 157 7,1 C 8,4 C 0,0 km/h (0 Bft)
04.10.2013 06:50 8,4 C 92 % 1020,9 hPa 0,0 l/m 0,0 km/h (0 Bft) S-SO 157 7,2 C 8,5 C 0,0 km/h (0 Bft)
04.10.2013 06:55 8,5 C 92 % 1020,9 hPa 0,0 l/m 0,0 km/h (0 Bft) S-SO 157 7,3 C 8,7 C 0,0 km/h (0 Bft)
04.10.2013 07:00 8,5 C 92 % 1020,9 hPa 0,0 l/m 0,0 km/h (0 Bft) S-SO 157 7,3 C 8,7 C 0,0 km/h (0 Bft)
04.10.2013 07:05 8,6 C 92 % 1021,1 hPa 0,0 l/m 0,0 km/h (0 Bft) S-SO 157 7,4 C 8,7 C 0,0 km/h (0 Bft)
04.10.2013 07:10 8,6 C 92 % 1021,1 hPa 0,0 l/m 0,0 km/h (0 Bft) S-SO 157 7,4 C 8,8 C 0,0 km/h (0 Bft)
04.10.2013 07:15 8,7 C 92 % 1021,1 hPa 0,0 l/m 0,0 km/h (0 Bft) S-SO 157 7,5 C 8,9 C 1,6 km/h (1 Bft)
04.10.2013 07:20 8,8 C 92 % 1021,1 hPa 0,0 l/m 0,2 km/h (0 Bft) SO 135 7,6 C 9,0 C 0,0 km/h (0 Bft)
04.10.2013 07:25 8,9 C 92 % 1021,2 hPa 0,0 l/m 0,2 km/h (0 Bft) SO 135 7,7 C 9,1 C 0,0 km/h (0 Bft)
04.10.2013 07:30 9,0 C 92 % 1021,2 hPa 0,0 l/m 0,0 km/h (0 Bft) SO 135 7,8 C 9,3 C 0,0 km/h (0 Bft)
04.10.2013 07:35 9,0 C 92 % 1021,2 hPa 0,0 l/m 0,0 km/h (0 Bft) SO 135 7,8 C 9,3 C 0,0 km/h (0 Bft)
04.10.2013 07:40 9,0 C 92 % 1021,2 hPa 0,0 l/m 0,0 km/h (0 Bft) SO 135 7,8 C 9,3 C 0,0 km/h (0 Bft)
04.10.2013 07:45 9,1 C 92 % 1021,2 hPa 0,0 l/m 0,0 km/h (0 Bft) SO 135 7,9 C 9,3 C 0,0 km/h (0 Bft)
04.10.2013 07:50 9,1 C 92 % 1021,2 hPa 0,0 l/m 0,0 km/h (0 Bft) S-SO 157 7,9 C 9,4 C 0,0 km/h (0 Bft)
04.10.2013 07:55 9,2 C 92 % 1021,2 hPa 0,0 l/m 0,0 km/h (0 Bft) SO 135 8,0 C 9,5 C 0,0 km/h (0 Bft)
04.10.2013 08:00 9,4 C 92 % 1021,2 hPa 0,0 l/m 0,0 km/h (0 Bft) SO 135 8,2 C 9,6 C 0,0 km/h (0 Bft)
04.10.2013 08:05 9,6 C 92 % 1021,4 hPa 0,0 l/m 0,0 km/h (0 Bft) SO 135 8,4 C 9,9 C 0,0 km/h (0 Bft)
04.10.2013 08:10 9,9 C 92 % 1021,4 hPa 0,0 l/m 0,0 km/h (0 Bft) SO 135 8,7 C 10,1 C 0,0 km/h (0 Bft)
04.10.2013 08:15 10,2 C 92 % 1021,4 hPa 0,0 l/m 0,0 km/h (0 Bft) SO 135 9,0 C 10,4 C 0,0 km/h (0 Bft)
04.10.2013 08:20 10,3 C 92 % 1021,4 hPa 0,0 l/m 0,0 km/h (0 Bft) S 180 9,1 C 10,7 C 0,0 km/h (0 Bft)
04.10.2013 08:25 10,3 C 92 % 1021,8 hPa 0,0 l/m 0,0 km/h (0 Bft) N-NW 337 9,1 C 11,0 C 0,0 km/h (0 Bft)
04.10.2013 08:30 10,3 C 92 % 1021,8 hPa 0,0 l/m 0,0 km/h (0 Bft) W-NW 292 9,1 C 11,0 C 0,0 km/h (0 Bft)
04.10.2013 08:35 10,3 C 92 % 1021,8 hPa 0,0 l/m 0,0 km/h (0 Bft) O 90 9,1 C 11,0 C 2,4 km/h (1 Bft)
04.10.2013 08:40 10,5 C 92 % 1021,8 hPa 0,0 l/m 0,3 km/h (0 Bft) NO 45 9,3 C 11,0 C 2,1 km/h (1 Bft)
04.10.2013 08:45 10,6 C 92 % 1022,1 hPa 0,0 l/m 0,5 km/h (0 Bft) N 360 9,4 C 11,3 C 0,0 km/h (0 Bft)
04.10.2013 08:50 10,8 C 92 % 1022,1 hPa 0,0 l/m 0,3 km/h (0 Bft) N 360 9,6 C 11,3 C 0,0 km/h (0 Bft)
04.10.2013 08:55 10,9 C 92 % 1022,1 hPa 0,0 l/m 0,0 km/h (0 Bft) N 360 9,7 C 11,5 C 0,0 km/h (0 Bft)
04.10.2013 09:00 11,1 C 92 % 1022,1 hPa 0,0 l/m 0,0 km/h (0 Bft) N 360 9,8 C 11,6 C 0,0 km/h (0 Bft)
04.10.2013 09:05 11,4 C 92 % 1022,4 hPa 0,0 l/m 0,0 km/h (0 Bft) N 360 10,1 C 11,8 C 0,0 km/h (0 Bft)
04.10.2013 09:10 11,6 C 92 % 1022,4 hPa 0,0 l/m 0,0 km/h (0 Bft) N 360 10,3 C 12,0 C 0,0 km/h (0 Bft)
04.10.2013 09:15 11,7 C 93 % 1022,4 hPa 0,0 l/m 0,0 km/h (0 Bft) N 360 10,6 C 12,3 C 0,0 km/h (0 Bft)
04.10.2013 09:20 11,9 C 93 % 1022,4 hPa 0,0 l/m 0,2 km/h (0 Bft) N 360 10,8 C 12,4 C 0,0 km/h (0 Bft)
04.10.2013 09:25 12,0 C 92 % 1022,6 hPa 0,0 l/m 0,3 km/h (0 Bft) O-SO 112 10,7 C 12,4 C 0,0 km/h (0 Bft)
04.10.2013 09:30 12,2 C 92 % 1022,6 hPa 0,0 l/m 0,3 km/h (0 Bft) O-SO 112 10,9 C 12,5 C 3,9 km/h (1 Bft)
04.10.2013 09:35 12,5 C 92 % 1022,6 hPa 0,0 l/m 0,8 km/h (0 Bft) O-SO 112 11,2 C 12,7 C 1,6 km/h (1 Bft)
04.10.2013 09:40 12,6 C 92 % 1022,6 hPa 0,0 l/m 0,5 km/h (0 Bft) S 180 11,3 C 12,8 C 0,0 km/h (0 Bft)
04.10.2013 09:45 12,9 C 93 % 1022,8 hPa 0,0 l/m 1,0 km/h (0 Bft) S-SO 157 11,8 C 13,0 C 5,6 km/h (1 Bft)
04.10.2013 09:50 12,9 C 93 % 1022,8 hPa 0,0 l/m 1,1 km/h (1 Bft) W 270 11,8 C 13,0 C 0,0 km/h (0 Bft)
04.10.2013 09:55 13,2 C 92 % 1022,8 hPa 0,0 l/m 0,3 km/h (0 Bft) O 90 11,9 C 13,3 C 0,0 km/h (0 Bft)
04.10.2013 10:00 13,1 C 92 % 1022,8 hPa 0,0 l/m 0,3 km/h (0 Bft) O-NO 67 11,8 C 13,4 C 2,6 km/h (1 Bft)
04.10.2013 10:05 13,1 C 92 % 1022,9 hPa 0,0 l/m 0,5 km/h (0 Bft) W-SW 247 11,8 C 13,4 C 1,9 km/h (1 Bft)
04.10.2013 10:10 13,1 C 92 % 1022,9 hPa 0,0 l/m 0,2 km/h (0 Bft) W-SW 247 11,8 C 13,4 C 0,0 km/h (0 Bft)
04.10.2013 10:15 13,1 C 92 % 1022,9 hPa 0,0 l/m 0,2 km/h (0 Bft) W-SW 247 11,8 C 13,5 C 0,0 km/h (0 Bft)
04.10.2013 10:20 13,1 C 93 % 1022,9 hPa 0,7 l/m 0,0 km/h (0 Bft) O-NO 67 12,0 C 13,6 C 0,0 km/h (0 Bft)
04.10.2013 10:25 13,1 C 93 % 1023,1 hPa 0,0 l/m 0,2 km/h (0 Bft) NO 45 12,0 C 13,6 C 0,0 km/h (0 Bft)
04.10.2013 10:30 13,2 C 93 % 1023,1 hPa 0,7 l/m 0,5 km/h (0 Bft) O-NO 67 12,1 C 13,6 C 2,7 km/h (1 Bft)
04.10.2013 10:35 13,1 C 93 % 1023,1 hPa 0,0 l/m 1,4 km/h (1 Bft) NO 45 12,0 C 13,6 C 0,0 km/h (0 Bft)
04.10.2013 10:40 13,2 C 93 % 1023,1 hPa 0,0 l/m 1,3 km/h (1 Bft) O-NO 67 12,1 C 13,6 C 0,0 km/h (0 Bft)
04.10.2013 10:45 13,5 C 93 % 1023,4 hPa 0,0 l/m 0,0 km/h (0 Bft) O-NO 67 12,4 C 13,8 C 0,0 km/h (0 Bft)
04.10.2013 10:50 13,7 C 93 % 1023,4 hPa 0,0 l/m 0,0 km/h (0 Bft) O 90 12,6 C 13,9 C 0,0 km/h (0 Bft)
04.10.2013 10:55 13,8 C 93 % 1023,4 hPa 0,0 l/m 0,0 km/h (0 Bft) O 90 12,7 C 14,1 C 0,0 km/h (0 Bft)
04.10.2013 11:00 13,7 C 93 % 1023,4 hPa 0,0 l/m 0,3 km/h (0 Bft) N-NO 22 12,6 C 14,1 C 2,6 km/h (1 Bft)
04.10.2013 11:05 13,7 C 93 % 1023,5 hPa 0,0 l/m 0,6 km/h (0 Bft) O-NO 67 12,6 C 14,1 C 0,0 km/h (0 Bft)
04.10.2013 11:10 13,8 C 93 % 1023,5 hPa 0,0 l/m 0,6 km/h (0 Bft) O 90 12,7 C 14,1 C 0,0 km/h (0 Bft)
04.10.2013 11:15 13,9 C 94 % 1023,5 hPa 0,7 l/m 0,6 km/h (0 Bft) NO 45 12,9 C 14,2 C 2,3 km/h (1 Bft)
04.10.2013 11:20 13,8 C 94 % 1023,5 hPa 0,0 l/m 1,1 km/h (1 Bft) NO 45 12,9 C 14,2 C 1,8 km/h (1 Bft)
04.10.2013 11:25 13,8 C 94 % 1023,6 hPa 0,7 l/m 1,0 km/h (0 Bft) O-NO 67 12,9 C 14,3 C 0,0 km/h (0 Bft)
04.10.2013 11:30 13,9 C 94 % 1023,6 hPa 0,0 l/m 0,8 km/h (0 Bft) NO 45 12,9 C 14,3 C 1,8 km/h (1 Bft)
04.10.2013 11:35 13,9 C 94 % 1023,6 hPa 0,0 l/m 1,0 km/h (0 Bft) O-NO 67 12,9 C 14,3 C 0,0 km/h (0 Bft)
04.10.2013 11:40 13,9 C 94 % 1023,6 hPa 0,0 l/m 0,5 km/h (0 Bft) NO 45 12,9 C 14,3 C 0,0 km/h (0 Bft)
04.10.2013 11:45 13,8 C 94 % 1023,6 hPa 0,0 l/m 0,2 km/h (0 Bft) O 90 12,9 C 14,3 C 0,0 km/h (0 Bft)
04.10.2013 11:50 13,8 C 94 % 1023,6 hPa 0,0 l/m 0,5 km/h (0 Bft) N-NW 337 12,9 C 14,3 C 2,4 km/h (1 Bft)
04.10.2013 11:55 13,9 C 94 % 1023,6 hPa 0,7 l/m 1,6 km/h (1 Bft) N-NW 337 12,9 C 14,3 C 3,1 km/h (1 Bft)
04.10.2013 12:00 14,1 C 94 % 1023,6 hPa 0,7 l/m 1,6 km/h (1 Bft) NW 315 13,1 C 14,4 C 0,0 km/h (0 Bft)
04.10.2013 12:05 14,3 C 94 % 1023,4 hPa 0,0 l/m 0,5 km/h (0 Bft) W-NW 292 13,3 C 14,6 C 0,0 km/h (0 Bft)
04.10.2013 12:10 14,8 C 94 % 1023,4 hPa 0,0 l/m 0,2 km/h (0 Bft) N-NO 22 13,8 C 14,9 C 0,0 km/h (0 Bft)
04.10.2013 12:15 14,7 C 94 % 1023,4 hPa 0,0 l/m 1,0 km/h (0 Bft) N 360 13,7 C 15,3 C 2,9 km/h (1 Bft)
04.10.2013 12:20 15,0 C 94 % 1023,4 hPa 0,0 l/m 1,1 km/h (1 Bft) W-NW 292 14,0 C 15,4 C 0,0 km/h (0 Bft)
04.10.2013 12:25 15,3 C 93 % 1023,8 hPa 0,0 l/m 0,6 km/h (0 Bft) W-NW 292 14,2 C 15,9 C 2,9 km/h (1 Bft)
04.10.2013 12:30 15,5 C 94 % 1023,8 hPa 0,0 l/m 1,4 km/h (1 Bft) W-NW 292 14,5 C 16,2 C 4,2 km/h (1 Bft)
04.10.2013 12:35 15,8 C 93 % 1023,8 hPa 0,0 l/m 2,9 km/h (1 Bft) W-NW 292 14,7 C 16,8 C 7,4 km/h (2 Bft)
04.10.2013 12:40 16,6 C 92 % 1023,8 hPa 0,0 l/m 2,6 km/h (1 Bft) W-NW 292 15,3 C 18,1 C 3,2 km/h (1 Bft)
04.10.2013 12:45 16,9 C 91 % 1023,9 hPa 0,0 l/m 2,7 km/h (1 Bft) NO 45 15,4 C 20,5 C 3,5 km/h (1 Bft)
04.10.2013 12:50 16,8 C 90 % 1023,9 hPa 0,0 l/m 2,4 km/h (1 Bft) W 270 15,1 C 20,5 C 4,2 km/h (1 Bft)
04.10.2013 12:55 16,6 C 90 % 1023,9 hPa 0,0 l/m 1,9 km/h (1 Bft) W-NW 292 15,0 C 19,4 C 2,9 km/h (1 Bft)
04.10.2013 13:00 16,7 C 90 % 1023,9 hPa 0,0 l/m 1,4 km/h (1 Bft) SW 225 15,0 C 19,0 C 1,8 km/h (1 Bft)
04.10.2013 13:05 16,6 C 90 % 1023,7 hPa 0,0 l/m 0,8 km/h (0 Bft) W-NW 292 15,0 C 18,7 C 2,6 km/h (1 Bft)
04.10.2013 13:10 17,0 C 90 % 1023,7 hPa 0,0 l/m 1,0 km/h (0 Bft) W-NW 292 15,3 C 18,6 C 1,9 km/h (1 Bft)
04.10.2013 13:15 17,1 C 90 % 1023,7 hPa 0,0 l/m 1,0 km/h (0 Bft) W 270 15,4 C 18,7 C 0,0 km/h (0 Bft)
04.10.2013 13:20 17,3 C 90 % 1023,7 hPa 0,0 l/m 0,5 km/h (0 Bft) N-NW 337 15,6 C 18,8 C 0,0 km/h (0 Bft)
04.10.2013 13:25 17,2 C 89 % 1023,6 hPa 0,0 l/m 0,2 km/h (0 Bft) N-NO 22 15,4 C 19,2 C 0,0 km/h (0 Bft)
04.10.2013 13:30 16,8 C 89 % 1023,6 hPa 0,0 l/m 0,8 km/h (0 Bft) NO 45 15,0 C 19,2 C 2,4 km/h (1 Bft)
04.10.2013 13:35 16,6 C 89 % 1023,6 hPa 0,0 l/m 1,0 km/h (0 Bft) O-NO 67 14,8 C 18,8 C 2,6 km/h (1 Bft)
04.10.2013 13:40 16,5 C 89 % 1023,6 hPa 0,0 l/m 0,8 km/h (0 Bft) N 360 14,7 C 18,5 C 0,0 km/h (0 Bft)
04.10.2013 13:45 16,7 C 90 % 1023,2 hPa 0,0 l/m 0,3 km/h (0 Bft) N-NO 22 15,0 C 18,4 C 0,0 km/h (0 Bft)
04.10.2013 13:50 16,5 C 90 % 1023,2 hPa 0,0 l/m 0,0 km/h (0 Bft) N-NO 22 14,9 C 18,4 C 0,0 km/h (0 Bft)
04.10.2013 13:55 16,4 C 90 % 1023,2 hPa 0,0 l/m 0,3 km/h (0 Bft) N-NO 22 14,8 C 18,3 C 0,0 km/h (0 Bft)
04.10.2013 14:00 16,4 C 90 % 1023,2 hPa 0,0 l/m 0,6 km/h (0 Bft) N 360 14,8 C 18,2 C 3,7 km/h (1 Bft)
04.10.2013 14:05 16,3 C 90 % 1023,1 hPa 0,0 l/m 0,5 km/h (0 Bft) O 90 14,7 C 18,0 C 0,0 km/h (0 Bft)
04.10.2013 14:10 16,3 C 90 % 1023,1 hPa 0,0 l/m 0,2 km/h (0 Bft) N 360 14,7 C 18,0 C 0,0 km/h (0 Bft)
04.10.2013 14:15 16,3 C 90 % 1023,1 hPa 0,0 l/m 0,0 km/h (0 Bft) N 360 14,7 C 18,1 C 0,0 km/h (0 Bft)
04.10.2013 14:20 16,3 C 90 % 1023,1 hPa 0,0 l/m 0,0 km/h (0 Bft) N-NO 22 14,7 C 18,2 C 0,0 km/h (0 Bft)
04.10.2013 14:25 16,3 C 90 % 1023,2 hPa 0,0 l/m 0,2 km/h (0 Bft) N 360 14,7 C 17,9 C 0,0 km/h (0 Bft)
04.10.2013 14:30 16,3 C 90 % 1023,2 hPa 0,0 l/m 0,2 km/h (0 Bft) N-NO 22 14,7 C 17,8 C 0,0 km/h (0 Bft)
04.10.2013 14:35 16,4 C 90 % 1023,2 hPa 0,0 l/m 0,0 km/h (0 Bft) N 360 14,8 C 17,9 C 0,0 km/h (0 Bft)
04.10.2013 14:40 16,5 C 90 % 1023,2 hPa 0,0 l/m 0,0 km/h (0 Bft) N 360 14,9 C 18,0 C 0,0 km/h (0 Bft)
04.10.2013 14:45 16,5 C 90 % 1022,9 hPa 0,0 l/m 0,2 km/h (0 Bft) N 360 14,9 C 18,1 C 0,0 km/h (0 Bft)
04.10.2013 14:50 16,5 C 90 % 1022,9 hPa 0,0 l/m 0,0 km/h (0 Bft) O-NO 67 14,9 C 18,2 C 0,0 km/h (0 Bft)
04.10.2013 14:55 16,8 C 90 % 1022,9 hPa 0,0 l/m 0,0 km/h (0 Bft) N-NW 337 15,1 C 18,6 C 0,0 km/h (0 Bft)
04.10.2013 15:00 17,1 C 90 % 1022,9 hPa 0,0 l/m 0,2 km/h (0 Bft) W-NW 292 15,4 C 19,0 C 0,0 km/h (0 Bft)
04.10.2013 15:05 17,4 C 90 % 1023,2 hPa 0,0 l/m 1,3 km/h (1 Bft) W-NW 292 15,7 C 19,4 C 4,0 km/h (1 Bft)
04.10.2013 15:10 17,5 C 89 % 1023,2 hPa 0,0 l/m 2,3 km/h (1 Bft) W-NW 292 15,7 C 20,2 C 5,0 km/h (1 Bft)
04.10.2013 15:15 18,1 C 89 % 1023,2 hPa 0,0 l/m 1,8 km/h (1 Bft) W-SW 247 16,3 C 21,3 C 0,0 km/h (0 Bft)
04.10.2013 15:20 18,1 C 89 % 1023,2 hPa 0,0 l/m 2,1 km/h (1 Bft) W 270 16,3 C 22,2 C 6,9 km/h (2 Bft)
04.10.2013 15:25 17,8 C 88 % 1023,3 hPa 0,0 l/m 3,2 km/h (1 Bft) NW 315 15,8 C 21,0 C 4,0 km/h (1 Bft)
04.10.2013 15:30 17,9 C 88 % 1023,3 hPa 0,0 l/m 3,1 km/h (1 Bft) NO 45 15,9 C 20,6 C 0,0 km/h (0 Bft)
04.10.2013 15:35 18,0 C 88 % 1023,3 hPa 0,0 l/m 1,4 km/h (1 Bft) N-NO 22 16,0 C 20,5 C 0,0 km/h (0 Bft)
04.10.2013 15:40 18,0 C 89 % 1023,3 hPa 0,0 l/m 0,5 km/h (0 Bft) NO 45 16,2 C 20,4 C 0,0 km/h (0 Bft)
04.10.2013 15:45 18,1 C 89 % 1022,9 hPa 0,0 l/m 0,3 km/h (0 Bft) N 360 16,3 C 21,2 C 0,0 km/h (0 Bft)
04.10.2013 15:50 18,1 C 89 % 1022,9 hPa 0,0 l/m 0,3 km/h (0 Bft) N 360 16,3 C 21,2 C 1,9 km/h (1 Bft)
04.10.2013 15:55 17,9 C 88 % 1022,9 hPa 0,0 l/m 0,5 km/h (0 Bft) O-NO 67 15,9 C 20,8 C 0,0 km/h (0 Bft)
04.10.2013 16:00 17,8 C 88 % 1022,9 hPa 0,0 l/m 0,5 km/h (0 Bft) N-NO 22 15,8 C 20,4 C 0,0 km/h (0 Bft)
04.10.2013 16:05 17,7 C 88 % 1022,6 hPa 0,0 l/m 0,2 km/h (0 Bft) W-NW 292 15,7 C 20,4 C 0,0 km/h (0 Bft)
04.10.2013 16:10 17,7 C 89 % 1022,6 hPa 0,0 l/m 0,0 km/h (0 Bft) N 360 15,9 C 20,6 C 0,0 km/h (0 Bft)
04.10.2013 16:15 17,7 C 88 % 1022,6 hPa 0,0 l/m 0,6 km/h (0 Bft) W-SW 247 15,7 C 20,3 C 0,0 km/h (0 Bft)
04.10.2013 16:20 17,7 C 89 % 1022,6 hPa 0,0 l/m 0,6 km/h (0 Bft) N-NO 22 15,9 C 20,1 C 0,0 km/h (0 Bft)
04.10.2013 16:25 17,5 C 89 % 1022,2 hPa 0,0 l/m 0,0 km/h (0 Bft) N-NW 337 15,7 C 20,1 C 0,0 km/h (0 Bft)
04.10.2013 16:30 17,5 C 89 % 1022,2 hPa 0,0 l/m 0,0 km/h (0 Bft) W 270 15,7 C 21,2 C 0,0 km/h (0 Bft)
04.10.2013 16:35 17,3 C 88 % 1022,2 hPa 0,0 l/m 1,9 km/h (1 Bft) N 360 15,3 C 21,6 C 8,0 km/h (2 Bft)
04.10.2013 16:40 17,2 C 87 % 1022,2 hPa 0,0 l/m 2,7 km/h (1 Bft) W-NW 292 15,0 C 21,5 C 2,1 km/h (1 Bft)
04.10.2013 16:45 16,8 C 88 % 1022,2 hPa 0,0 l/m 1,1 km/h (1 Bft) N-NO 22 14,8 C 21,6 C 0,0 km/h (0 Bft)
04.10.2013 16:50 16,7 C 88 % 1022,2 hPa 0,0 l/m 0,6 km/h (0 Bft) N-NW 337 14,7 C 22,1 C 0,0 km/h (0 Bft)
04.10.2013 16:55 16,5 C 89 % 1022,2 hPa 0,0 l/m 0,6 km/h (0 Bft) N 360 14,7 C 22,3 C 2,9 km/h (1 Bft)
04.10.2013 17:00 16,4 C 89 % 1022,2 hPa 0,0 l/m 1,8 km/h (1 Bft) N-NW 337 14,6 C 21,9 C 5,0 km/h (1 Bft)
04.10.2013 17:05 16,4 C 89 % 1021,9 hPa 0,0 l/m 2,9 km/h (1 Bft) NO 45 14,6 C 21,8 C 2,9 km/h (1 Bft)
04.10.2013 17:10 16,3 C 89 % 1021,9 hPa 0,0 l/m 3,2 km/h (1 Bft) N 360 14,5 C 21,8 C 5,0 km/h (1 Bft)
04.10.2013 17:15 16,3 C 89 % 1021,9 hPa 0,0 l/m 3,2 km/h (1 Bft) N 360 14,5 C 22,0 C 6,4 km/h (2 Bft)
04.10.2013 17:20 16,3 C 89 % 1021,9 hPa 0,0 l/m 4,3 km/h (1 Bft) N 360 14,5 C 21,7 C 6,0 km/h (2 Bft)
04.10.2013 17:25 16,4 C 89 % 1022,2 hPa 0,0 l/m 5,5 km/h (1 Bft) N 360 14,6 C 21,2 C 8,2 km/h (2 Bft)
04.10.2013 17:30 16,3 C 89 % 1022,2 hPa 0,0 l/m 3,5 km/h (1 Bft) S 180 14,5 C 20,0 C 4,5 km/h (1 Bft)
04.10.2013 17:35 16,1 C 89 % 1022,2 hPa 0,0 l/m 1,6 km/h (1 Bft) NW 315 14,3 C 18,7 C 0,0 km/h (0 Bft)
04.10.2013 17:40 15,9 C 90 % 1022,2 hPa 0,0 l/m 1,0 km/h (0 Bft) NO 45 14,3 C 18,2 C 0,0 km/h (0 Bft)
04.10.2013 17:45 15,8 C 91 % 1021,9 hPa 0,0 l/m 0,0 km/h (0 Bft) N-NO 22 14,3 C 17,7 C 0,0 km/h (0 Bft)
04.10.2013 17:50 15,6 C 91 % 1021,9 hPa 0,0 l/m 0,2 km/h (0 Bft) N 360 14,1 C 18,5 C 2,9 km/h (1 Bft)
04.10.2013 17:55 15,4 C 91 % 1021,9 hPa 0,0 l/m 0,2 km/h (0 Bft) NO 45 13,9 C 18,6 C 0,0 km/h (0 Bft)
04.10.2013 18:00 15,4 C 92 % 1021,9 hPa 0,0 l/m 0,2 km/h (0 Bft) N 360 14,1 C 18,0 C 0,0 km/h (0 Bft)
04.10.2013 18:05 15,4 C 92 % 1021,7 hPa 0,0 l/m 0,0 km/h (0 Bft) N-NO 22 14,1 C 17,4 C 0,0 km/h (0 Bft)
04.10.2013 18:10 15,5 C 92 % 1021,7 hPa 0,0 l/m 0,0 km/h (0 Bft) N 360 14,2 C 17,1 C 0,0 km/h (0 Bft)
04.10.2013 18:15 15,3 C 92 % 1021,7 hPa 0,0 l/m 0,2 km/h (0 Bft) N-NW 337 14,0 C 16,8 C 1,9 km/h (1 Bft)
04.10.2013 18:20 15,2 C 92 % 1021,7 hPa 0,0 l/m 0,3 km/h (0 Bft) N 360 13,9 C 16,6 C 1,9 km/h (1 Bft)
04.10.2013 18:25 15,0 C 92 % 1021,6 hPa 0,0 l/m 0,8 km/h (0 Bft) N-NO 22 13,7 C 16,1 C 0,0 km/h (0 Bft)
04.10.2013 18:30 14,9 C 93 % 1021,6 hPa 0,0 l/m 0,8 km/h (0 Bft) NO 45 13,8 C 15,8 C 1,9 km/h (1 Bft)
04.10.2013 18:35 14,7 C 93 % 1021,6 hPa 0,0 l/m 0,5 km/h (0 Bft) NO 45 13,6 C 15,4 C 0,0 km/h (0 Bft)
04.10.2013 18:40 14,6 C 93 % 1021,6 hPa 0,0 l/m 0,3 km/h (0 Bft) N-NO 22 13,5 C 15,2 C 0,0 km/h (0 Bft)
04.10.2013 18:45 14,3 C 93 % 1021,6 hPa 0,0 l/m 0,0 km/h (0 Bft) NO 45 13,2 C 14,9 C 0,0 km/h (0 Bft)
04.10.2013 18:50 14,2 C 93 % 1021,6 hPa 0,0 l/m 0,0 km/h (0 Bft) NO 45 13,1 C 14,8 C 0,0 km/h (0 Bft)
04.10.2013 18:55 14,1 C 93 % 1021,6 hPa 0,0 l/m 0,0 km/h (0 Bft) NO 45 13,0 C 14,5 C 0,0 km/h (0 Bft)
04.10.2013 19:00 14,1 C 93 % 1021,6 hPa 0,0 l/m 0,2 km/h (0 Bft) N-NO 22 13,0 C 14,5 C 0,0 km/h (0 Bft)
04.10.2013 19:05 14,0 C 93 % 1021,4 hPa 0,0 l/m 0,2 km/h (0 Bft) NO 45 12,9 C 14,3 C 1,8 km/h (1 Bft)
04.10.2013 19:10 14,0 C 93 % 1021,4 hPa 0,0 l/m 0,2 km/h (0 Bft) NO 45 12,9 C 14,3 C 0,0 km/h (0 Bft)
04.10.2013 19:15 13,9 C 93 % 1021,4 hPa 0,0 l/m 0,3 km/h (0 Bft) N 360 12,8 C 14,3 C 0,0 km/h (0 Bft)
04.10.2013 19:20 13,9 C 93 % 1021,4 hPa 0,0 l/m 0,8 km/h (0 Bft) N 360 12,8 C 14,3 C 2,1 km/h (1 Bft)
04.10.2013 19:25 13,9 C 93 % 1021,6 hPa 0,0 l/m 1,3 km/h (1 Bft) NO 45 12,8 C 14,3 C 1,9 km/h (1 Bft)
04.10.2013 19:30 13,9 C 93 % 1021,6 hPa 0,0 l/m 0,8 km/h (0 Bft) N 360 12,8 C 14,3 C 0,0 km/h (0 Bft)
04.10.2013 19:35 13,8 C 94 % 1021,6 hPa 0,0 l/m 0,2 km/h (0 Bft) N 360 12,9 C 14,3 C 0,0 km/h (0 Bft)
04.10.2013 19:40 13,8 C 94 % 1021,6 hPa 0,0 l/m 0,0 km/h (0 Bft) N-NO 22 12,9 C 14,2 C 0,0 km/h (0 Bft)
04.10.2013 19:45 13,8 C 94 % 1021,5 hPa 0,0 l/m 0,0 km/h (0 Bft) NO 45 12,9 C 14,2 C 0,0 km/h (0 Bft)
04.10.2013 19:50 13,9 C 94 % 1021,5 hPa 0,0 l/m 0,3 km/h (0 Bft) N-NO 22 12,9 C 14,2 C 2,3 km/h (1 Bft)
04.10.2013 19:55 13,6 C 94 % 1021,5 hPa 0,0 l/m 0,5 km/h (0 Bft) N-NO 22 12,7 C 14,1 C 0,0 km/h (0 Bft)
04.10.2013 20:00 13,7 C 94 % 1021,5 hPa 0,0 l/m 0,3 km/h (0 Bft) NO 45 12,8 C 14,0 C 0,0 km/h (0 Bft)
04.10.2013 20:05 13,3 C 94 % 1021,4 hPa 0,0 l/m 0,2 km/h (0 Bft) NO 45 12,4 C 13,7 C 0,0 km/h (0 Bft)
04.10.2013 20:10 13,2 C 94 % 1021,4 hPa 0,0 l/m 0,0 km/h (0 Bft) N-NW 337 12,3 C 13,7 C 0,0 km/h (0 Bft)
04.10.2013 20:15 13,3 C 94 % 1021,4 hPa 0,0 l/m 0,0 km/h (0 Bft) N-NO 22 12,4 C 13,7 C 0,0 km/h (0 Bft)
04.10.2013 20:20 13,3 C 94 % 1021,4 hPa 0,0 l/m 0,0 km/h (0 Bft) W-NW 292 12,4 C 13,7 C 0,0 km/h (0 Bft)
04.10.2013 20:25 13,4 C 94 % 1021,1 hPa 0,0 l/m 0,0 km/h (0 Bft) NW 315 12,5 C 13,9 C 0,0 km/h (0 Bft)
04.10.2013 20:30 13,4 C 94 % 1021,1 hPa 0,0 l/m 0,0 km/h (0 Bft) N 360 12,5 C 13,9 C 0,0 km/h (0 Bft)
04.10.2013 20:35 13,6 C 94 % 1021,1 hPa 0,0 l/m 0,0 km/h (0 Bft) NW 315 12,7 C 14,0 C 0,0 km/h (0 Bft)
04.10.2013 20:40 13,7 C 94 % 1021,1 hPa 0,0 l/m 0,0 km/h (0 Bft) O 90 12,8 C 14,0 C 0,0 km/h (0 Bft)
04.10.2013 20:45 13,6 C 94 % 1020,9 hPa 0,0 l/m 0,0 km/h (0 Bft) N-NW 337 12,7 C 14,0 C 0,0 km/h (0 Bft)
04.10.2013 20:50 13,5 C 94 % 1020,9 hPa 0,0 l/m 0,3 km/h (0 Bft) W-NW 292 12,6 C 14,0 C 0,0 km/h (0 Bft)
04.10.2013 20:55 13,6 C 94 % 1020,9 hPa 0,0 l/m 0,3 km/h (0 Bft) W-NW 292 12,7 C 14,0 C 0,0 km/h (0 Bft)
04.10.2013 21:00 13,6 C 94 % 1020,9 hPa 0,0 l/m 0,2 km/h (0 Bft) N-NW 337 12,7 C 14,0 C 0,0 km/h (0 Bft)
04.10.2013 21:05 13,5 C 94 % 1020,8 hPa 0,0 l/m 0,2 km/h (0 Bft) W-NW 292 12,6 C 14,0 C 0,0 km/h (0 Bft)
04.10.2013 21:10 13,5 C 94 % 1020,8 hPa 0,0 l/m 0,2 km/h (0 Bft) N 360 12,6 C 14,0 C 0,0 km/h (0 Bft)
04.10.2013 21:15 13,6 C 94 % 1020,8 hPa 0,0 l/m 0,0 km/h (0 Bft) N-NW 337 12,7 C 13,9 C 0,0 km/h (0 Bft)
04.10.2013 21:20 13,6 C 94 % 1020,8 hPa 0,0 l/m 0,0 km/h (0 Bft) N 360 12,7 C 13,9 C 0,0 km/h (0 Bft)
04.10.2013 21:25 13,5 C 94 % 1020,7 hPa 0,0 l/m 0,0 km/h (0 Bft) N 360 12,6 C 13,9 C 0,0 km/h (0 Bft)
04.10.2013 21:30 13,4 C 94 % 1020,7 hPa 0,0 l/m 0,0 km/h (0 Bft) N 360 12,5 C 13,9 C 0,0 km/h (0 Bft)
04.10.2013 21:35 13,3 C 94 % 1020,7 hPa 0,0 l/m 0,0 km/h (0 Bft) W-NW 292 12,4 C 13,8 C 0,0 km/h (0 Bft)
04.10.2013 21:40 13,3 C 94 % 1020,7 hPa 0,0 l/m 0,0 km/h (0 Bft) W-NW 292 12,4 C 13,7 C 0,0 km/h (0 Bft)
04.10.2013 21:45 13,2 C 94 % 1020,4 hPa 0,0 l/m 0,0 km/h (0 Bft) N 360 12,3 C 13,7 C 0,0 km/h (0 Bft)
04.10.2013 21:50 13,2 C 94 % 1020,4 hPa 0,0 l/m 0,0 km/h (0 Bft) N-NO 22 12,3 C 13,6 C 0,0 km/h (0 Bft)
04.10.2013 21:55 13,3 C 94 % 1020,4 hPa 0,0 l/m 0,0 km/h (0 Bft) N 360 12,4 C 13,6 C 0,0 km/h (0 Bft)
04.10.2013 22:00 13,1 C 94 % 1020,4 hPa 0,0 l/m 0,0 km/h (0 Bft) N-NW 337 12,2 C 13,6 C 0,0 km/h (0 Bft)
04.10.2013 22:05 13,1 C 94 % 1020,2 hPa 0,0 l/m 0,0 km/h (0 Bft) N-NO 22 12,2 C 13,6 C 0,0 km/h (0 Bft)
04.10.2013 22:10 13,1 C 94 % 1020,2 hPa 0,0 l/m 0,3 km/h (0 Bft) NO 45 12,2 C 13,7 C 1,8 km/h (1 Bft)
04.10.2013 22:15 13,2 C 95 % 1020,2 hPa 0,0 l/m 0,6 km/h (0 Bft) O 90 12,4 C 13,7 C 0,0 km/h (0 Bft)
04.10.2013 22:20 13,2 C 95 % 1020,2 hPa 0,0 l/m 0,3 km/h (0 Bft) NO 45 12,4 C 13,7 C 0,0 km/h (0 Bft)
04.10.2013 22:25 13,1 C 95 % 1019,9 hPa 0,0 l/m 0,2 km/h (0 Bft) NO 45 12,3 C 13,6 C 0,0 km/h (0 Bft)
04.10.2013 22:30 13,1 C 95 % 1019,9 hPa 0,0 l/m 0,2 km/h (0 Bft) O 90 12,3 C 13,5 C 0,0 km/h (0 Bft)
04.10.2013 22:35 13,1 C 95 % 1019,9 hPa 0,0 l/m 0,2 km/h (0 Bft) N 360 12,3 C 13,5 C 2,1 km/h (1 Bft)
04.10.2013 22:40 13,1 C 95 % 1019,9 hPa 0,0 l/m 0,3 km/h (0 Bft) N-NO 22 12,3 C 13,4 C 0,0 km/h (0 Bft)
04.10.2013 22:45 13,1 C 95 % 1019,8 hPa 0,0 l/m 0,3 km/h (0 Bft) N 360 12,3 C 13,4 C 0,0 km/h (0 Bft)
04.10.2013 22:50 13,1 C 95 % 1019,8 hPa 0,0 l/m 0,3 km/h (0 Bft) NO 45 12,3 C 13,4 C 0,0 km/h (0 Bft)
04.10.2013 22:55 13,0 C 95 % 1019,8 hPa 0,0 l/m 0,3 km/h (0 Bft) NO 45 12,2 C 13,4 C 0,0 km/h (0 Bft)
04.10.2013 23:00 13,0 C 95 % 1019,8 hPa 0,0 l/m 0,0 km/h (0 Bft) N 360 12,2 C 13,4 C 0,0 km/h (0 Bft)
04.10.2013 23:05 12,9 C 95 % 1019,6 hPa 0,0 l/m 0,0 km/h (0 Bft) NO 45 12,1 C 13,3 C 0,0 km/h (0 Bft)
04.10.2013 23:10 12,9 C 95 % 1019,6 hPa 0,0 l/m 0,0 km/h (0 Bft) N 360 12,1 C 13,3 C 0,0 km/h (0 Bft)
04.10.2013 23:15 12,9 C 95 % 1019,6 hPa 0,0 l/m 0,2 km/h (0 Bft) NO 45 12,1 C 13,2 C 2,9 km/h (1 Bft)
04.10.2013 23:20 12,9 C 95 % 1019,6 hPa 0,0 l/m 0,6 km/h (0 Bft) N-NW 337 12,1 C 13,2 C 2,1 km/h (1 Bft)
04.10.2013 23:25 12,9 C 95 % 1019,2 hPa 0,0 l/m 0,8 km/h (0 Bft) N 360 12,1 C 13,2 C 0,0 km/h (0 Bft)
04.10.2013 23:30 12,9 C 95 % 1019,2 hPa 0,0 l/m 0,3 km/h (0 Bft) W-SW 247 12,1 C 13,2 C 0,0 km/h (0 Bft)
04.10.2013 23:35 12,9 C 95 % 1019,2 hPa 0,0 l/m 0,0 km/h (0 Bft) W-NW 292 12,1 C 13,2 C 0,0 km/h (0 Bft)
04.10.2013 23:40 12,8 C 95 % 1019,2 hPa 0,0 l/m 0,2 km/h (0 Bft) N 360 12,0 C 13,1 C 3,1 km/h (1 Bft)
04.10.2013 23:45 12,7 C 95 % 1019,2 hPa 0,0 l/m 1,1 km/h (1 Bft) W-NW 292 11,9 C 13,1 C 2,4 km/h (1 Bft)
04.10.2013 23:50 12,6 C 95 % 1019,2 hPa 0,0 l/m 1,3 km/h (1 Bft) W-NW 292 11,8 C 13,0 C 2,3 km/h (1 Bft)
04.10.2013 23:55 12,6 C 95 % 1019,2 hPa 0,0 l/m 1,1 km/h (1 Bft) N-NW 337 11,8 C 13,0 C 2,4 km/h (1 Bft)
_ Min-Zeit 00:00 16:40 23:55 - 23:35 - - 00:00 00:05 23:35
Minimum _ 5,3 C 87 % 1019,2 hPa - 0,0 km/h (0 Bft) - - 4,1 C 5,6 C 0,0 km/h (0 Bft)
_ Max-Zeit 15:50 23:55 13:00 11:55 17:25 - - 15:50 16:55 17:25
Maximum _ 18,1 C 95 % 1023,9 hPa 0,7 l/m 5,5 km/h
N (1 Bft)
- - 16,3 C 22,3 C 8,2 km/h
N (2 Bft)
Durchschnitt _ 12,1 C 92 % 1021,8 hPa #4,1 l/m 0,4 km/h (0 Bft) W-NW - 10,8 C 13,0 C 0,7 km/h (0 Bft)